This demonstration page uses our WeatherBlox Daily Observations layout. Learn more.

Left ArrowRight Arrow

Hourly Observations for April 3, 2020

Temp ( °F °C ) Dew Point ( °F °C ) Humidity (%) Winds ( mph kmh ) Pressure ( in mb ) Visibility ( mi km ) Precip ( " mm )
12:15 am 00:15 Clear 52 11 30 -1 44 44 NNW 13 20 29.87 1012 10 16.0934 0 0
12:35 am 00:35 Clear 52 11 30 -1 44 44 NNW 15 24 29.87 1012 10 16.0934 0 0
12:55 am 00:55 Clear 50 10 30 -1 47 47 NNW 10 17 29.88 1012 10 16.0934 0 0
1:15 am 01:15 Clear 50 10 30 -1 47 47 NNW 15 24 29.87 1011 10 16.0934 0 0
1:35 am 01:35 Clear 50 10 30 -1 47 47 NNW 12 19 29.88 1012 10 16.0934 0 0
1:55 am 01:55 Clear 48 9 30 -1 50 50 NNW 13 20 29.87 1011 10 16.0934 0 0
2:15 am 02:15 Clear 48 9 28 -2 46 46 NNW 15 24 29.87 1011 10 16.0934 0 0
2:35 am 02:35 Clear 48 9 28 -2 46 46 NW 13 20 29.86 1011 10 16.0934 0 0
3:15 am 03:15 Clear 46 8 27 -3 46 46 NNW 12 19 29.86 1011 10 16.0934 0 0
3:35 am 03:35 Clear 46 8 27 -3 46 46 NNW 13 20 29.86 1011 10 16.0934 0 0
3:55 am 03:55 Clear 46 8 25 -4 43 43 NNW 14 22 29.86 1011 10 16.0934 0 0
4:15 am 04:15 Clear 46 8 23 -5 40 40 NNW 15 24 29.85 1011 10 16.0934 0 0
4:35 am 04:35 Clear 46 8 23 -5 40 40 NNW 16 26 29.85 1011 10 16.0934 0 0
4:55 am 04:55 Clear 46 8 23 -5 40 40 NW 20 31 29.85 1011 10 16.0934 0 0
5:15 am 05:15 Clear 45 7 23 -5 42 42 NNW 14 22 29.85 1011 10 16.0934 0 0
5:35 am 05:35 Clear 45 7 23 -5 42 42 NNW 8 13 29.86 1011 10 16.0934 0 0
5:55 am 05:55 Clear 45 7 23 -5 42 42 NW 15 24 29.86 1011 10 16.0934 0 0
6:15 am 06:15 Clear 45 7 23 -5 42 42 NNW 17 28 29.86 1011 10 16.0934 0 0
6:35 am 06:35 Clear 45 7 23 -5 42 42 NNW 14 22 29.86 1011 10 16.0934 0 0
6:55 am 06:55 Sunny 45 7 25 -4 46 46 NNW 18 30 29.86 1011 10 16.0934 0 0
7:15 am 07:15 Sunny 45 7 25 -4 46 46 NNW 20 31 29.87 1012 10 16.0934 0 0
7:35 am 07:35 Sunny 45 7 27 -3 49 49 NNW 15 24 29.88 1012 10 16.0934 0 0
7:55 am 07:55 Sunny 45 7 27 -3 49 49 NW 16 26 29.88 1012 10 16.0934 0 0
8:15 am 08:15 Sunny 46 8 27 -3 46 46 NNW 18 30 29.87 1011 10 16.0934 0 0
8:35 am 08:35 Sunny 46 8 28 -2 50 50 NNW 22 35 29.88 1012 10 16.0934 0 0
8:55 am 08:55 Sunny 48 9 28 -2 46 46 NNW 16 26 29.88 1012 10 16.0934 0 0
9:15 am 09:15 Sunny 50 10 28 -2 43 43 NNW 18 30 29.87 1011 10 16.0934 0 0
9:35 am 09:35 Sunny 50 10 30 -1 47 47 NNW 20 31 29.87 1011 10 16.0934 0 0
9:55 am 09:55 Sunny 52 11 30 -1 44 44 NNW 26 43 29.86 1011 10 16.0934 0 0
10:15 am 10:15 Sunny 52 11 30 -1 44 44 NNW 16 26 29.86 1011 10 16.0934 0 0
10:35 am 10:35 Sunny 54 12 30 -1 41 41 N 25 41 29.86 1011 10 16.0934 0 0
10:55 am 10:55 Sunny 54 12 30 -1 41 41 NNW 23 37 29.85 1011 10 16.0934 0 0
11:15 am 11:15 Sunny 55 13 30 -1 38 38 NNW 22 35 29.85 1011 10 16.0934 0 0
11:35 am 11:35 Sunny 57 14 30 -1 36 36 NNW 31 50 29.84 1011 10 16.0934 0 0
11:55 am 11:55 Sunny 57 14 30 -1 36 36 NNW 24 39 29.84 1011 10 16.0934 0 0
12:15 pm 12:15 Sunny 59 15 30 -1 34 34 N 25 41 29.83 1010 10 16.0934 0 0
12:35 pm 12:35 Sunny 59 15 32 0 36 36 N 24 39 29.83 1010 10 16.0934 0 0
12:55 pm 12:55 Sunny 61 16 32 0 34 34 NNW 24 39 29.82 1010 10 16.0934 0 0
1:15 pm 13:15 Sunny 61 16 32 0 34 34 N 22 35 29.81 1009 10 16.0934 0 0
1:35 pm 13:35 Sunny 61 16 32 0 34 34 N 17 28 29.82 1010 10 16.0934 0 0
1:55 pm 13:55 Sunny 63 17 32 0 32 32 N 21 33 29.82 1010 10 16.0934 0 0
2:15 pm 14:15 Sunny 63 17 34 1 34 34 N 18 30 29.82 1010 10 16.0934 0 0
2:35 pm 14:35 Sunny 63 17 34 1 34 34 N 17 28 29.81 1009 10 16.0934 0 0
2:55 pm 14:55 Sunny 63 17 34 1 34 34 NW 20 31 29.81 1009 10 16.0934 0 0
3:15 pm 15:15 Sunny 64 18 34 1 32 32 NNW 21 33 29.79 1009 10 16.0934 0 0
3:35 pm 15:35 Sunny 64 18 34 1 32 32 NNW 18 30 29.79 1009 10 16.0934 0 0
3:55 pm 15:55 Sunny 64 18 34 1 32 32 NNW 25 41 29.79 1009 10 16.0934 0 0
4:15 pm 16:15 Sunny 64 18 34 1 32 32 N 24 39 29.79 1009 10 16.0934 0 0
4:35 pm 16:35 Sunny 64 18 34 1 32 32 N 24 39 29.79 1009 10 16.0934 0 0
5:15 pm 17:15 Sunny 64 18 34 1 32 32 N 22 35 29.8 1009 10 16.0934 0 0
5:35 pm 17:35 Sunny 64 18 34 1 32 32 N 21 33 29.8 1009 10 16.0934 0 0
6:15 pm 18:15 Partly Cloudy 64 18 34 1 32 32 N 20 31 29.81 1010 10 16.0934 0 0
6:35 pm 18:35 Partly Cloudy 63 17 34 1 34 34 NNW 20 31 29.83 1010 10 16.0934 0 0
6:55 pm 18:55 Partly Cloudy 63 17 34 1 34 34 N 15 24 29.84 1010 10 16.0934 0 0
7:15 pm 19:15 Sunny 63 17 34 1 34 34 NNW 18 30 29.84 1010 10 16.0934 0 0
7:35 pm 19:35 Partly Cloudy 63 17 34 1 34 34 NNW 14 22 29.85 1011 10 16.0934 0 0
7:55 pm 19:55 Partly Cloudy 61 16 34 1 36 36 NNW 17 28 29.85 1011 10 16.0934 0 0
8:15 pm 20:15 Partly Cloudy 59 15 37 3 45 45 NNE 9 15 29.87 1011 10 16.0934 0 0
8:35 pm 20:35 Clear 55 13 37 3 51 51 NNE 12 19 29.89 1012 10 16.0934 0 0
8:55 pm 20:55 Clear 54 12 39 4 58 58 NNE 9 15 29.9 1013 10 16.0934 0 0
9:15 pm 21:15 Clear 54 12 41 5 63 63 NE 8 13 29.91 1013 10 16.0934 0 0
9:35 pm 21:35 Clear 52 11 41 5 67 67 NE 7 11 29.92 1013 10 16.0934 0 0
9:55 pm 21:55 Clear 52 11 41 5 67 67 NE 10 17 29.93 1014 10 16.0934 0 0
10:15 pm 22:15 Clear 52 11 41 5 67 67 NE 6 9 29.94 1014 10 16.0934 0 0
10:35 pm 22:35 Clear 52 11 41 5 67 67 NE 8 13 29.94 1014 10 16.0934 0 0
10:55 pm 22:55 Clear 50 10 41 5 71 71 NE 6 9 29.96 1014 10 16.0934 0 0
11:15 pm 23:15 Clear 50 10 41 5 71 71 NE 9 15 29.96 1014 10 16.0934 0 0
11:35 pm 23:35 Clear 50 10 41 5 71 71 NNE 6 9 29.96 1014 10 16.0934 0 0
11:55 pm 23:55 Clear 50 10 41 5 71 71 NNE 7 11 29.96 1014 10 16.0934 0 0

Powered by AerisWeather